EW3114 Weather Reports


Display with metric or nautical units.
time (UTC)temp
F
wind
direction
speed
MPH
gust
MPH
rain 1hr
in
rain 24hr
in
rain mn
in
humidity
%
barometer
mb
20260509111543 0 259 0.0 0.0 0.00 0.00 0.00 1006.2
20260509110037 0 143 0.0 0.0 0.00 0.00 0.00 1006.2
20260509104541 0 131 0.0 0.0 0.00 0.00 0.00 1006.1
20260509103029 0 231 0.0 0.0 0.00 0.00 0.00 1006.3
20260509101526 0 130 0.0 0.0 0.00 0.00 0.00 1006.3
20260509100009 0 117 0.0 0.0 0.00 0.00 0.00 1006.5
20260509094504 0 129 0.0 0.0 0.00 0.00 0.00 1006.6
20260509093103 0 184 0.0 0.0 0.00 0.00 0.00 1006.7
20260509091558 0 221 0.0 0.0 0.00 0.00 0.00 1007.0
20260509090059 0 198 0.0 0.0 0.00 0.00 0.00 1007.0
20260509084606 0 146 0.0 0.0 0.00 0.00 0.00 1007.1
20260509083055 0 150 0.0 0.0 0.00 0.00 0.00 1007.0
20260509081549 0 220 0.0 0.0 0.00 0.00 0.00 1006.8
20260509080038 0 195 0.0 0.0 0.00 0.00 0.00 1006.8
20260509074530 0 245 0.0 0.0 0.00 0.00 0.00 1007.2
20260509073039 0 254 0.0 0.0 0.00 0.00 0.00 1007.2
20260509071527 0 112 0.0 0.0 0.00 0.00 0.00 1007.5
20260509070033 0 159 0.0 0.0 0.00 0.00 0.00 1007.6
20260509064511 0 244 0.0 0.0 0.00 0.00 0.00 1007.7
20260509063007 0 250 0.0 0.0 0.00 0.00 0.00 1007.7
20260509061613 0 49 0.0 0.0 0.00 0.00 0.00 1008.1
20260509060057 0 102 0.0 0.0 0.00 0.00 0.00 1008.3
20260509054543 0 305 0.0 0.0 0.00 0.00 0.00 1008.3
20260509053041 0 255 0.0 0.0 0.00 0.00 0.00 1008.2
20260509051533 0 247 0.0 0.0 0.00 0.00 0.00 1008.3
20260509050028 0 228 0.0 0.0 0.00 0.00 0.00 1008.2
20260509044526 0 270 0.0 0.0 0.00 0.00 0.00 1008.4
20260509043019 0 223 0.0 0.0 0.00 0.00 0.00 1008.3
20260509041503 0 238 0.0 0.0 0.00 0.00 0.00 1008.3
20260509034554 0 244 0.0 0.0 0.00 0.00 0.00 1008.5
20260509033050 0 219 0.0 0.0 0.00 0.00 0.00 1008.6
20260509031545 0 196 0.0 0.0 0.00 0.00 0.00 1008.7
20260509030042 0 157 0.0 0.0 0.00 0.00 0.00 1008.7
20260509024539 0 65 0.0 0.0 0.00 0.00 0.00 1008.8
20260509023032 0 175 0.0 0.0 0.00 0.00 0.00 1008.8
20260509021509 0 186 0.0 0.0 0.00 0.00 0.00 1008.9
20260509020004 0 35 0.0 0.0 0.00 0.00 0.00 1008.8
20260509014600 0 180 0.0 0.0 0.00 0.00 0.00 1008.7
20260509013059 0 145 0.0 0.0 0.00 0.00 0.00 1008.8
20260509011552 0 159 0.0 0.0 0.00 0.00 0.00 1008.6
20260509010047 0 153 0.0 0.0 0.00 0.00 0.00 1008.7
20260509004542 0 138 0.0 0.0 0.00 0.00 0.00 1008.8
20260509003042 0 153 0.0 0.0 0.00 0.00 0.00 1008.7
20260509001520 0 163 0.0 0.0 0.00 0.00 0.00 1008.8
20260509000016 0 138 0.0 0.0 0.00 0.00 0.00 1008.8
20260508234512 0 252 0.0 0.0 0.00 0.00 0.00 1008.8
20260508233007 0 314 0.0 0.0 0.00 0.00 0.00 1008.9
20260508231502 0 297 0.0 0.0 0.00 0.00 0.00 1008.9
20260508230100 0 223 0.0 0.0 0.00 0.01 0.00 1009.0
20260508224557 0 129 0.0 0.0 0.00 0.01 0.00 1009.0
20260508223049 0 134 0.0 0.0 0.00 0.01 0.00 1009.1
20260508221531 0 226 0.0 0.0 0.00 0.01 0.00 1009.1
20260508220026 0 133 0.0 0.0 0.00 0.06 0.00 1009.3
20260508214522 0 56 0.0 0.0 0.00 0.06 0.00 1009.4
20260508213017 0 157 0.0 0.0 0.00 0.06 0.00 1009.5
20260508211516 0 241 0.0 0.0 0.00 0.06 0.00 1009.4
20260508210008 0 104 0.0 0.0 0.00 0.06 0.00 1009.4
20260508204504 0 168 0.0 0.0 0.00 0.06 0.00 1009.6
20260508203107 0 143 0.0 0.0 0.00 0.06 0.00 1009.9
20260508201602 0 323 0.0 0.0 0.00 0.06 0.00 1010.0
20260508200030 0 146 0.0 0.0 0.00 0.06 0.00 1010.4
20260508194525 0 284 0.0 0.0 0.00 0.06 0.00 1010.5
20260508193021 0 246 0.0 0.0 0.00 0.06 0.00 1010.6
20260508191523 0 136 0.0 0.0 0.00 0.06 0.00 1010.9
20260508190013 0 101 0.0 0.0 0.00 0.06 0.00 1011.0
20260508184506 0 271 0.0 0.0 0.00 0.06 0.00 1011.1
20260508183001 0 80 0.0 0.0 0.00 0.06 0.00 1011.4
20260508181604 0 141 0.0 0.0 0.00 0.06 0.00 1011.4
20260508180041 0 143 0.0 0.0 0.00 0.06 0.00 1011.7
20260508174547 0 248 0.0 0.0 0.00 0.06 0.00 1012.0
20260508173040 0 138 0.0 0.0 0.00 0.06 0.00 1012.2
20260508171527 0 149 0.0 0.0 0.00 0.06 0.00 1012.4
20260508170022 0 85 0.0 0.0 0.00 0.06 0.00 1012.7
20260508164518 0 137 0.0 0.0 0.00 0.06 0.00 1012.9
20260508163017 0 181 0.0 0.0 0.00 0.06 0.00 1013.2
20260508161510 0 127 0.0 0.0 0.00 0.06 0.00 1013.2
20260508160047 0 131 0.0 0.0 0.00 0.06 0.00 1013.4
20260508154543 0 155 0.0 0.0 0.00 0.06 0.00 1013.4
20260508153022 0 85 0.0 0.0 0.00 0.06 0.00 1013.6
20260508151527 0 158 0.0 0.0 0.00 0.06 0.00 1013.6
20260508150026 0 145 0.0 0.0 0.00 0.06 0.00 1013.7
20260508144508 0 268 0.0 0.0 0.00 0.06 0.00 1013.7
20260508143002 0 216 0.0 0.0 0.00 0.06 0.00 1014.0
20260508141621 0 255 0.0 0.0 0.00 0.06 0.00 1013.9
20260508140056 0 202 0.0 0.0 0.00 0.06 0.00 1013.7
20260508134602 0 152 0.0 0.0 0.00 0.06 0.00 1013.7
20260508133033 0 103 0.0 0.0 0.00 0.06 0.00 1013.7
20260508131528 0 139 0.0 0.0 0.00 0.06 0.00 1013.7
20260508130023 0 281 0.0 0.0 0.00 0.06 0.00 1014.0
20260508124521 0 146 0.0 0.0 0.00 0.06 0.00 1014.2
20260508123023 0 146 0.0 0.0 0.00 0.06 0.00 1014.0
20260508121512 0 146 0.0 0.0 0.00 0.06 0.00 1014.1
20260508120005 0 167 0.0 0.0 0.00 0.06 0.00 1014.1
20260508114601 0 167 0.0 0.0 0.00 0.06 0.00 1013.8
20260508113049 0 131 0.0 0.0 0.00 0.06 0.00 1013.7